Погода в Ак-Эрике

Россия / Республика Тыва     50°30′52″N   94°37′01″E
темп.,
°C
ветер,
м/с
пор.,
м/с
влажн.,
%
обл.,
%
осадки,
мм/ч
давл.,
гПа
погр.,
м
14 апреля, ср
ср1401:00+2с3856100 0.8 1020981
04:00+2зсз7840100 0.4 1022471
07:000зсз4535100 0.4 1025294
10:00+2ссз682975 0.0 10281994
13:00+4ссз7725100 0.0 10262740
16:00+5сз7822100 0.0 10252865
19:00+4зюз452817 0.0 1025546
22:00+2ююз2232100 0.0 102550
15 апреля, чт
чт1501:00+2вюв113495 0.1 102325
04:00+1ююв113897 0.0 102214
07:00+1з114129 0.0 102346
10:00+4ю113482 0.0 1023482
13:00+8з363361 0.0 10221917
16:00+10з463180 0.0 10202088
19:00+9з223777 0.0 1020113
22:00+6в3347100 0.0 102255
16 апреля, пт
пт1601:00+4в34535 0.0 102351
04:00+3в34555 0.0 102258
07:00+3вюв34545 0.0 1022102
10:00+9юв33365 0.0 1020574
13:00+12зюз24275 0.0 10171384
16:00+13з34255 0.0 10141541
19:00+12сз22300 0.0 101342
22:00+9всв22350 0.0 101313
17 апреля, сб
сб1701:00+7в11410 0.0 101210
04:00+5в22430 0.0 101110
07:00+6всв22420 0.0 101111
10:00+11ю01305 0.0 1009514
13:00+14з332430 0.0 10051231
16:00+15з442298 0.0 10051286
19:00+14зсз2228100 0.0 100416
22:00+11ссв1133100 0.0 100410
18 апреля, вс
вс1801:00+9ссв33365 0.0 100425
04:00+7всв45515 0.0 100672
07:00+7св345368 0.0 1008102
10:00+12вюв223616 0.0 1006887
13:00+15юз342527 0.0 10051570
16:00+16зюз242144 0.0 10031573
19:00+15ссз3527100 0.0 1002122
22:00+12всв333739 0.0 100339